TimePST,TemperatureF,Dew PointF,Humidity,Sea Level PressureIn,VisibilityMPH,Wind Direction,Wind SpeedMPH,Gust SpeedMPH,PrecipitationIn,Events,Conditions,WindDirDegrees,DateUTC
1:53 AM,54.0,45.0,72,30.37,10.0,SSW,19.6,-,N/A,,Partly Cloudy,210,2013-03-01 09:53:00
2:53 AM,52.0,45.0,77,30.36,10.0,SSW,18.4,-,N/A,,Mostly Cloudy,210,2013-03-01 10:53:00
3:53 AM,52.0,44.1,74,30.36,10.0,South,11.5,-,N/A,,Partly Cloudy,190,2013-03-01 11:53:00
4:53 AM,54.0,43.0,66,30.37,10.0,SW,9.2,-,N/A,,Overcast,220,2013-03-01 12:53:00
5:53 AM,54.0,42.1,64,30.35,10.0,SSW,10.4,-,N/A,,Overcast,200,2013-03-01 13:53:00
6:53 AM,55.0,41.0,59,30.35,10.0,SW,19.6,28.8,N/A,,Partly Cloudy,220,2013-03-01 14:53:00
7:53 AM,55.9,42.1,60,30.36,10.0,SW,10.4,18.4,N/A,,Clear,220,2013-03-01 15:53:00
8:53 AM,57.0,44.1,62,30.36,10.0,SW,23.0,28.8,N/A,,Clear,220,2013-03-01 16:53:00
9:53 AM,59.0,46.0,62,30.37,10.0,SW,23.0,29.9,N/A,,Clear,220,2013-03-01 17:53:00
10:53 AM,62.1,46.0,56,30.37,10.0,WSW,27.6,33.4,N/A,,Clear,240,2013-03-01 18:53:00
11:53 AM,62.1,45.0,53,30.37,10.0,SW,25.3,-,N/A,,Clear,230,2013-03-01 19:53:00
12:53 PM,61.0,45.0,56,30.34,10.0,SW,17.3,-,N/A,,Clear,230,2013-03-01 20:53:00
1:53 PM,63.0,45.0,52,30.34,10.0,WSW,16.1,-,N/A,,Clear,240,2013-03-01 21:53:00
2:53 PM,63.0,44.1,50,30.33,10.0,WSW,18.4,23.0,N/A,,Clear,250,2013-03-01 22:53:00
3:53 PM,63.0,43.0,48,30.31,10.0,WSW,13.8,-,N/A,,Clear,240,2013-03-01 23:53:00
4:53 PM,62.1,42.1,48,30.31,10.0,WSW,6.9,-,N/A,,Clear,240,2013-03-02 00:53:00
5:53 PM,59.0,43.0,55,30.31,10.0,South,11.5,-,N/A,,Clear,180,2013-03-02 01:53:00
6:53 PM,57.9,43.0,58,30.31,10.0,South,10.4,-,N/A,,Clear,180,2013-03-02 02:53:00
7:53 PM,54.0,43.0,66,30.31,10.0,South,8.1,-,N/A,,Clear,170,2013-03-02 03:53:00
8:53 PM,55.9,43.0,62,30.30,10.0,South,5.8,-,N/A,,Clear,190,2013-03-02 04:53:00
9:53 PM,51.1,43.0,74,30.30,10.0,South,8.1,-,N/A,,Clear,170,2013-03-02 05:53:00
10:53 PM,50.0,43.0,77,30.29,10.0,SSE,5.8,-,N/A,,Clear,150,2013-03-02 06:53:00
11:53 PM,46.0,42.1,86,30.28,10.0,NNW,3.5,-,N/A,,Clear,340,2013-03-02 07:53:00